Total_Precipitation_Accumulation
0.11 0.11 0.11 0.12 0.12 0.13 0.14 0.16 0.17 0.16 0.16 0.16 0.17 0.18 0.21 0.23 0.21 0.17 0.14 0.12 0.08 0.08 0.14 0.29 0.54 0.79 0.99 1.10 1.10 0.96 0.88 0.75 0.58 0.48 0.45 0.52 0.54 0.54 0.57 0.67 0.64 0.53 0.49
0.03 0.03 0.03 0.02 0.02 0.02 0.02 0.03 0.04 0.05 0.06 0.08 0.09 0.11 0.13 0.16 0.18 0.19 0.19 0.21 0.16 0.13 0.14 0.20 0.33 0.56 0.86 1.08 1.18 1.16 1.02 0.93 0.76 0.58 0.50 0.49 0.54 0.54 0.54 0.59 0.67 0.63 0.52
0.01 0.01 0.01 0.01 0.00 0.00 0.00 0.00 0.00 0.01 0.01 0.02 0.03 0.05 0.07 0.08 0.12 0.15 0.18 0.22 0.23 0.20 0.17 0.20 0.27 0.42 0.71 1.00 1.18 1.32 1.23 1.08 0.96 0.82 0.62 0.50 0.52 0.56 0.54 0.55 0.62 0.69 0.65
0.00 0.00 0.00 0.00 0.00 0.00 0.01 0.01 0.01 0.00 0.01 0.01 0.02 0.03 0.05 0.06 0.06 0.09 0.14 0.16 0.19 0.21 0.20 0.20 0.28 0.42 0.59 0.85 1.12 1.38 1.48 1.32 1.21 1.15 0.95 0.71 0.55 0.56 0.56 0.54 0.59 0.67 0.74
0.00 0.00 0.00 0.00 0.00 0.01 0.01 0.02 0.02 0.01 0.01 0.01 0.02 0.02 0.02 0.04 0.05 0.08 0.11 0.14 0.17 0.18 0.20 0.21 0.25 0.34 0.47 0.70 1.04 1.38 1.72 1.75 1.56 1.43 1.26 1.06 0.82 0.63 0.60 0.56 0.58 0.66 0.73
0.00 0.00 0.00 0.00 0.00 0.00 0.00 0.01 0.01 0.01 0.02 0.01 0.02 0.01 0.00 0.01 0.02 0.05 0.07 0.12 0.16 0.17 0.19 0.24 0.27 0.25 0.27 0.39 0.63 1.01 1.38 1.72 1.79 1.69 1.58 1.38 1.15 0.90 0.74 0.65 0.62 0.68 0.77
0.00 0.00 0.00 0.00 0.00 0.01 0.01 0.01 0.02 0.02 0.02 0.02 0.02 0.01 0.00 0.00 0.01 0.02 0.07 0.12 0.17 0.23 0.29 0.34 0.40 0.38 0.30 0.29 0.32 0.46 0.80 1.29 1.65 1.82 1.80 1.73 1.49 1.20 0.97 0.79 0.72 0.74 0.79
0.00 0.00 0.00 0.00 0.00 0.00 0.00 0.01 0.02 0.04 0.04 0.03 0.06 0.11 0.05 0.01 0.00 0.01 0.04 0.09 0.17 0.27 0.39 0.44 0.49 0.50 0.46 0.36 0.25 0.25 0.37 0.73 1.27 1.74 1.87 1.87 1.89 1.65 1.26 1.00 0.85 0.83 0.86
0.00 0.00 0.00 0.00 0.00 0.01 0.01 0.01 0.02 0.04 0.06 0.04 0.07 0.24 0.31 0.16 0.05 0.00 0.01 0.04 0.08 0.12 0.20 0.29 0.36 0.41 0.47 0.48 0.39 0.30 0.28 0.43 0.79 1.39 1.88 1.97 1.97 2.03 1.76 1.30 1.01 0.88 0.88
0.00 0.00 0.00 0.00 0.00 0.01 0.01 0.02 0.03 0.05 0.10 0.12 0.08 0.12 0.22 0.27 0.29 0.13 0.01 0.02 0.02 0.04 0.06 0.10 0.16 0.23 0.34 0.44 0.48 0.43 0.36 0.37 0.57 0.93 1.55 2.06 2.09 2.13 2.18 1.80 1.33 1.04 0.93
0.00 0.00 0.00 0.00 0.00 0.01 0.02 0.03 0.04 0.06 0.12 0.17 0.17 0.15 0.14 0.13 0.19 0.28 0.12 0.02 0.03 0.03 0.03 0.05 0.07 0.10 0.16 0.27 0.36 0.43 0.45 0.40 0.49 0.70 1.05 1.68 2.24 2.36 2.41 2.24 1.76 1.30 1.03
0.00 0.00 0.00 0.00 0.01 0.01 0.03 0.04 0.06 0.09 0.11 0.15 0.18 0.20 0.24 0.26 0.20 0.26 0.22 0.07 0.03 0.03 0.04 0.05 0.06 0.07 0.10 0.16 0.23 0.35 0.43 0.44 0.45 0.56 0.68 1.04 1.77 2.40 2.59 2.45 2.11 1.67 1.25
0.01 0.00 0.01 0.01 0.01 0.03 0.04 0.07 0.10 0.11 0.12 0.16 0.19 0.21 0.22 0.22 0.21 0.26 0.29 0.17 0.07 0.02 0.03 0.05 0.06 0.09 0.11 0.14 0.18 0.25 0.32 0.39 0.45 0.50 0.50 0.56 0.92 1.74 2.50 2.71 2.43 2.01 1.63
0.01 0.01 0.01 0.01 0.02 0.04 0.07 0.10 0.13 0.14 0.16 0.19 0.19 0.21 0.22 0.19 0.21 0.26 0.32 0.36 0.28 0.09 0.03 0.04 0.05 0.08 0.11 0.13 0.15 0.19 0.20 0.26 0.35 0.41 0.43 0.45 0.51 0.85 1.62 2.52 3.02 2.67 2.12
0.01 0.01 0.01 0.02 0.04 0.07 0.10 0.12 0.15 0.17 0.20 0.22 0.23 0.24 0.26 0.24 0.25 0.25 0.28 0.38 0.53 0.37 0.10 0.03 0.05 0.06 0.09 0.12 0.17 0.17 0.17 0.20 0.27 0.34 0.36 0.39 0.43 0.51 0.82 1.47 2.41 3.07 2.93
0.01 0.01 0.03 0.05 0.09 0.14 0.17 0.18 0.19 0.20 0.24 0.26 0.28 0.30 0.31 0.31 0.30 0.30 0.32 0.32 0.40 0.48 0.29 0.05 0.06 0.07 0.09 0.12 0.17 0.18 0.18 0.20 0.22 0.27 0.31 0.33 0.36 0.44 0.57 0.86 1.43 2.33 2.90
0.02 0.03 0.06 0.09 0.14 0.20 0.24 0.27 0.28 0.30 0.31 0.28 0.30 0.34 0.35 0.34 0.35 0.33 0.34 0.35 0.34 0.39 0.38 0.10 0.04 0.07 0.13 0.16 0.17 0.17 0.19 0.18 0.16 0.19 0.26 0.31 0.34 0.40 0.50 0.65 0.90 1.46 2.30
0.05 0.07 0.11 0.16 0.20 0.24 0.27 0.36 0.42 0.44 0.47 0.45 0.44 0.43 0.44 0.44 0.46 0.44 0.45 0.40 0.36 0.34 0.38 0.24 0.07 0.06 0.13 0.20 0.26 0.25 0.21 0.18 0.15 0.16 0.20 0.26 0.31 0.35 0.43 0.54 0.68 0.94 1.50
0.09 0.14 0.21 0.29 0.34 0.36 0.37 0.38 0.49 0.62 0.70 0.72 0.71 0.71 0.68 0.65 0.65 0.63 0.61 0.53 0.42 0.34 0.33 0.30 0.16 0.09 0.13 0.23 0.33 0.34 0.29 0.21 0.16 0.17 0.19 0.22 0.27 0.30 0.35 0.42 0.53 0.67 0.92
0.19 0.27 0.34 0.45 0.52 0.60 0.73 0.73 0.72 0.67 0.68 0.77 0.82 0.85 0.90 0.93 0.92 0.88 0.85 0.69 0.54 0.44 0.36 0.34 0.26 0.17 0.15 0.22 0.39 0.44 0.40 0.31 0.22 0.17 0.19 0.20 0.24 0.29 0.29 0.30 0.33 0.46 0.69
0.26 0.34 0.39 0.40 0.43 0.65 1.11 1.27 0.98 0.62 0.52 0.54 0.57 0.61 0.72 0.88 1.00 1.06 1.09 0.94 0.78 0.68 0.55 0.45 0.36 0.28 0.23 0.28 0.43 0.50 0.53 0.48 0.40 0.31 0.24 0.19 0.20 0.22 0.23 0.27 0.33 0.41 0.55
0.19 0.29 0.35 0.33 0.32 0.53 0.98 1.13 0.75 0.43 0.36 0.35 0.36 0.37 0.41 0.57 0.68 0.77 0.88 0.91 0.95 0.97 0.87 0.68 0.52 0.40 0.32 0.33 0.41 0.55 0.59 0.61 0.59 0.48 0.39 0.33 0.28 0.26 0.24 0.23 0.27 0.33 0.43
0.12 0.17 0.19 0.17 0.20 0.39 0.76 0.87 0.54 0.26 0.19 0.18 0.19 0.20 0.21 0.30 0.42 0.46 0.53 0.61 0.71 0.84 0.94 0.90 0.80 0.63 0.47 0.40 0.45 0.52 0.59 0.65 0.64 0.62 0.60 0.58 0.51 0.40 0.34 0.33 0.35 0.33 0.36
0.10 0.12 0.11 0.07 0.07 0.20 0.57 0.75 0.46 0.18 0.11 0.12 0.15 0.13 0.11 0.16 0.31 0.40 0.49 0.49 0.50 0.64 0.84 0.94 1.01 0.91 0.70 0.57 0.62 0.68 0.72 0.69 0.68 0.79 0.82 0.79 0.71 0.58 0.53 0.49 0.46 0.38 0.34
0.08 0.10 0.09 0.05 0.03 0.08 0.40 0.73 0.53 0.18 0.10 0.10 0.12 0.13 0.10 0.10 0.25 0.34 0.31 0.29 0.30 0.43 0.56 0.72 0.80 0.78 0.72 0.67 0.70 0.76 0.74 0.76 0.86 0.99 1.03 1.01 0.94 0.75 0.70 0.71 0.64 0.51 0.39
0.04 0.05 0.06 0.04 0.02 0.03 0.22 0.64 0.68 0.25 0.13 0.09 0.08 0.09 0.15 0.17 0.24 0.23 0.17 0.18 0.25 0.32 0.32 0.35 0.39 0.44 0.46 0.47 0.56 0.72 0.83 0.85 0.93 1.15 1.19 1.08 1.13 1.00 0.97 0.93 0.76 0.54 0.43